Weather History for KHSP - December, 2012

Change the Weather History Date:

Wednesday, December 19, 2012

  Actual Average Record
Temperature  
Mean Temperature 37 °F -  
Max Temperature 44 °F 34 °F 55 °F (2008)
Min Temperature 30 °F 20 °F 0 °F (2004)
Degree Days  
Heating Degree Days 28    
Moisture  
Dew Point 28 °F    
Average Humidity 68    
Maximum Humidity 86    
Minimum Humidity 49    
Precipitation  
Precipitation 0.00 in - - ()
Sea Level Pressure  
Sea Level Pressure 29.97 in    
Wind  
Wind Speed 17 mph (West)    
Max Wind Speed 28 mph    
Max Gust Speed 34 mph    
Visibility 10 miles    
Events      
Averages and records for this station are not official NWS values.
T = Trace of Precipitation, MM = Missing Value Source: NWS Daily Summary

Daily Weather History Graph

Daily Weather History Graph

Search for Another Location

Airport or City:

Trip Planner

Search our weather history database for the weather conditions in past years. The results will help you decide how hot, cold, wet, or windy it might be!

Date:

Astronomy

Dec. 19, 2012 Rise Set
Actual Time 7:30 AM EST 5:02 PM EST
Civil Twilight 7:01 AM EST 5:32 PM EST
Nautical Twilight 6:28 AM EST 6:05 PM EST
Astronomical Twilight 5:56 AM EST 6:37 PM EST
Moon 11:45 AM EST (12/19) No Moon Set
Length of Visible Light 10h 30m
Length of Day
9h 31m
Waxing Crescent, 45% of the Moon is Illuminated
Dec 19
Waxing Crescent
Dec 20
First Quarter
Dec 28
Full
Jan 4
Last Quarter
Jan 11
New

Hourly Weather History & Observations

Time (EST) Temp. Windchill Dew Point Humidity Pressure Visibility Wind Dir Wind Speed Gust Speed Precip Events Conditions
12:15 AM 30.2 °F 18.9 °F 26.6 °F 86% 29.82 in 10.0 mi West 16.1 mph - N/A   Scattered Clouds
12:35 AM 30.2 °F 18.9 °F 24.8 °F 80% 29.82 in 10.0 mi West 16.1 mph 21.9 mph N/A   Scattered Clouds
12:55 AM 32.0 °F 20.5 °F 24.8 °F 75% 29.81 in 10.0 mi West 18.4 mph 21.9 mph N/A   Clear
1:15 AM 32.0 °F 20.8 °F 24.8 °F 75% 29.81 in 10.0 mi West 17.3 mph 23.0 mph N/A   Clear
1:35 AM 33.8 °F 22.5 °F 24.8 °F 70% 29.81 in 10.0 mi West 19.6 mph 26.5 mph N/A   Clear
1:55 AM 33.8 °F 21.9 °F 26.6 °F 75% 29.82 in 10.0 mi West 21.9 mph 27.6 mph N/A   Clear
2:15 AM 33.8 °F 20.5 °F 26.6 °F 75% 29.82 in 10.0 mi West 27.6 mph 31.1 mph N/A   Scattered Clouds
2:35 AM 33.8 °F 21.6 °F 26.6 °F 75% 29.82 in 10.0 mi West 23.0 mph 28.8 mph N/A   Overcast
2:55 AM 33.8 °F 22.5 °F 26.6 °F 75% 29.82 in 10.0 mi West 19.6 mph 31.1 mph N/A   Overcast
3:15 AM 33.8 °F 21.6 °F 26.6 °F 75% 29.82 in 10.0 mi West 23.0 mph 33.4 mph N/A   Overcast
3:35 AM 33.8 °F 21.6 °F 26.6 °F 75% 29.82 in 10.0 mi West 23.0 mph 32.2 mph N/A   Overcast
3:55 AM 33.8 °F 22.2 °F 28.4 °F 81% 29.82 in 10.0 mi West 20.7 mph 33.4 mph N/A   Overcast
4:15 AM 33.8 °F 22.2 °F 28.4 °F 81% 29.83 in 10.0 mi West 20.7 mph 28.8 mph N/A   Mostly Cloudy
4:35 AM 35.6 °F 24.2 °F 28.4 °F 75% 29.83 in 10.0 mi West 21.9 mph 32.2 mph N/A   Mostly Cloudy
4:55 AM 35.6 °F 24.5 °F 28.4 °F 75% 29.84 in 10.0 mi West 20.7 mph 32.2 mph N/A   Overcast
5:15 AM 35.6 °F 24.2 °F 28.4 °F 75% 29.85 in 10.0 mi West 21.9 mph 33.4 mph N/A   Overcast
5:35 AM 35.6 °F 24.0 °F 28.4 °F 75% 29.85 in 10.0 mi West 23.0 mph 34.5 mph N/A   Overcast
5:55 AM 35.6 °F 24.0 °F 30.2 °F 81% 29.86 in 10.0 mi West 23.0 mph 29.9 mph N/A   Overcast
6:15 AM 35.6 °F 24.5 °F 30.2 °F 81% 29.86 in 10.0 mi West 20.7 mph 33.4 mph N/A   Overcast
6:35 AM 35.6 °F 24.0 °F 30.2 °F 81% 29.87 in 10.0 mi West 23.0 mph 32.2 mph N/A   Overcast
6:55 AM 35.6 °F 24.0 °F 30.2 °F 81% 29.87 in 10.0 mi West 23.0 mph 31.1 mph N/A   Overcast
7:15 AM 35.6 °F 24.2 °F 30.2 °F 81% 29.89 in 10.0 mi West 21.9 mph 29.9 mph N/A   Overcast
7:35 AM 35.6 °F 24.8 °F 30.2 °F 81% 29.89 in 10.0 mi West 19.6 mph 29.9 mph N/A   Mostly Cloudy
7:55 AM 35.6 °F 25.5 °F 30.2 °F 81% 29.89 in 10.0 mi West 17.3 mph 28.8 mph N/A   Mostly Cloudy
8:15 AM 35.6 °F 24.2 °F 30.2 °F 81% 29.90 in 10.0 mi West 21.9 mph 31.1 mph N/A   Mostly Cloudy
8:35 AM 35.6 °F 24.8 °F 30.2 °F 81% 29.91 in 10.0 mi WNW 19.6 mph 31.1 mph N/A   Mostly Cloudy
8:55 AM 35.6 °F 24.8 °F 30.2 °F 81% 29.91 in 10.0 mi West 19.6 mph 26.5 mph N/A   Mostly Cloudy
9:15 AM 37.4 °F 26.9 °F 30.2 °F 75% 29.92 in 10.0 mi WNW 20.7 mph 26.5 mph N/A   Mostly Cloudy
9:35 AM 37.4 °F 26.6 °F 30.2 °F 75% 29.94 in 10.0 mi West 21.9 mph 27.6 mph N/A   Mostly Cloudy
9:55 AM 37.4 °F 26.9 °F 32.0 °F 81% 29.95 in 10.0 mi West 20.7 mph 26.5 mph N/A   Scattered Clouds
10:15 AM 39.2 °F 30.5 °F 32.0 °F 75% 29.95 in 10.0 mi WNW 16.1 mph 26.5 mph N/A   Scattered Clouds
10:35 AM 39.2 °F 29.0 °F 30.2 °F 70% 29.95 in 10.0 mi WNW 21.9 mph 28.8 mph N/A   Scattered Clouds
10:55 AM 39.2 °F 30.2 °F 30.2 °F 70% 29.96 in 10.0 mi West 17.3 mph 26.5 mph N/A   Clear
11:15 AM 41.0 °F 32.8 °F 30.2 °F 65% 29.96 in 10.0 mi West 16.1 mph 24.2 mph N/A   Clear
11:35 AM 42.8 °F 34.8 °F 30.2 °F 61% 29.97 in 10.0 mi West 17.3 mph 24.2 mph N/A   Clear
11:55 AM 42.8 °F 37.0 °F 30.2 °F 61% 29.97 in 10.0 mi WNW 10.4 mph 21.9 mph N/A   Clear
12:15 PM 42.8 °F 35.4 °F 30.2 °F 61% 29.98 in 10.0 mi West 15.0 mph 23.0 mph N/A   Clear
12:35 PM 42.8 °F 34.5 °F 30.2 °F 61% 29.97 in 10.0 mi West 18.4 mph 24.2 mph N/A   Clear
12:55 PM 42.8 °F 34.3 °F 30.2 °F 61% 29.97 in 10.0 mi WNW 19.6 mph 28.8 mph N/A   Clear
1:15 PM 44.6 °F 37.4 °F 30.2 °F 57% 29.96 in 10.0 mi West 16.1 mph 27.6 mph N/A   Clear
1:35 PM 44.6 °F 37.2 °F 30.2 °F 57% 29.97 in 10.0 mi West 17.3 mph 24.2 mph N/A   Clear
1:55 PM 44.6 °F 37.4 °F 30.2 °F 57% 29.99 in 10.0 mi WNW 16.1 mph 23.0 mph N/A   Clear
2:15 PM 44.6 °F 37.4 °F 30.2 °F 57% 29.99 in 10.0 mi West 16.1 mph 24.2 mph N/A   Clear
2:35 PM 44.6 °F 38.1 °F 28.4 °F 53% 29.99 in 10.0 mi WNW 13.8 mph 25.3 mph N/A   Clear
2:55 PM 44.6 °F 37.8 °F 28.4 °F 53% 29.99 in 10.0 mi West 15.0 mph 21.9 mph N/A   Clear
3:15 PM 44.6 °F 37.8 °F 28.4 °F 53% 30.01 in 10.0 mi West 15.0 mph 21.9 mph N/A   Clear
3:35 PM 44.6 °F 37.4 °F 26.6 °F 49% 30.02 in 10.0 mi West 16.1 mph 20.7 mph N/A   Clear
3:55 PM 44.6 °F 38.1 °F 26.6 °F 49% 30.02 in 10.0 mi West 13.8 mph 17.3 mph N/A   Clear
4:15 PM 44.6 °F 38.4 °F 26.6 °F 49% 30.03 in 10.0 mi WNW 12.7 mph 18.4 mph N/A   Clear
4:55 PM 42.8 °F 37.0 °F 26.6 °F 53% 30.05 in 10.0 mi West 10.4 mph 16.1 mph N/A   Clear
5:15 PM 41.0 °F 34.7 °F 24.8 °F 53% 30.06 in 10.0 mi WNW 10.4 mph - N/A   Clear
5:35 PM 41.0 °F 32.5 °F 24.8 °F 53% 30.06 in 10.0 mi West 17.3 mph - N/A   Clear
5:55 PM 41.0 °F 32.8 °F 26.6 °F 57% 30.07 in 10.0 mi WNW 16.1 mph 20.7 mph N/A   Unknown
6:15 PM 39.2 °F 30.8 °F 26.6 °F 61% 30.07 in 10.0 mi WNW 15.0 mph - N/A   Clear
6:35 PM 39.2 °F 33.0 °F 26.6 °F 61% 30.09 in 10.0 mi West 9.2 mph - N/A   Clear
6:55 PM 39.2 °F 32.5 °F 26.6 °F 61% 30.10 in 10.0 mi West 10.4 mph - N/A   Clear
7:15 PM 39.2 °F 32.0 °F 24.8 °F 56% 30.10 in 10.0 mi WNW 11.5 mph - N/A   Clear
7:35 PM 39.2 °F 33.0 °F 26.6 °F 61% 30.11 in 10.0 mi WNW 9.2 mph - N/A   Clear
7:55 PM 39.2 °F 32.5 °F 26.6 °F 61% 30.11 in 10.0 mi WNW 10.4 mph - N/A   Clear
8:15 PM 39.2 °F 33.6 °F 26.6 °F 61% 30.12 in 10.0 mi WNW 8.1 mph - N/A   Clear
8:35 PM 39.2 °F 33.6 °F 26.6 °F 61% 30.13 in 10.0 mi West 8.1 mph - N/A   Clear
8:55 PM 39.2 °F 33.0 °F 28.4 °F 65% 30.13 in 10.0 mi West 9.2 mph - N/A   Clear
9:15 PM 39.2 °F 33.0 °F 28.4 °F 65% 30.13 in 10.0 mi West 9.2 mph - N/A   Clear
9:35 PM 39.2 °F 32.5 °F 28.4 °F 65% 30.13 in 10.0 mi West 10.4 mph - N/A   Clear
9:55 PM 39.2 °F 34.2 °F 28.4 °F 65% 30.13 in 10.0 mi West 6.9 mph - N/A   Clear
10:15 PM 39.2 °F 35.9 °F 28.4 °F 65% 30.14 in 10.0 mi WSW 4.6 mph - N/A   Clear
10:35 PM 39.2 °F 37.0 °F 28.4 °F 65% 30.14 in 10.0 mi WSW 3.5 mph - N/A   Clear
10:55 PM 39.2 °F - 28.4 °F 65% 30.13 in 10.0 mi Calm Calm - N/A   Clear
11:15 PM 39.2 °F 37.0 °F 26.6 °F 61% 30.14 in 10.0 mi South 3.5 mph - N/A   Clear
11:35 PM 37.4 °F 33.8 °F 26.6 °F 65% 30.13 in 10.0 mi South 4.6 mph - N/A   Clear
11:55 PM 39.2 °F 35.0 °F 26.6 °F 61% 30.13 in 10.0 mi South 5.8 mph - N/A   Clear